{"data":{"norad_id":51758,"intl_designator":"2022-016AW","name":"STARLINK-3458","alt_names":[],"object_type":"PAYLOAD","status":"ACTIVE","operator":null,"country":"US","launch_date":"2022-02-21","launch_site_code":"AFETR","launch_vehicle":null,"mission":null,"orbit_class":"UNKNOWN","rcs_meters":null,"size_class":null,"mass_kg":null,"dimensions":null,"purposes":["comms"],"wikipedia_slug":null,"has_3d_model":false,"image_url":null,"decayed_at":null,"tle_current":{"epoch":"2026-09-20T02:28:34.889376Z","epoch_age_seconds":86523,"freshness":"FRESH","line1":"1 51758U 22016AW  26263.10318159  .00001562  00000+0  55686-4 0  9991","line2":"2 51758  53.1591 141.3012 0001117  93.9307 266.1824 15.35397495254400","mean_motion":15.35397495,"eccentricity":0.0001117,"inclination_deg":53.1591,"raan_deg":141.3012,"arg_perigee_deg":93.9307,"mean_anomaly_deg":266.1824,"bstar":5.5686e-5,"rev_number":25440,"period_min":93.786788417289,"perigee_km":458.9762891891,"apogee_km":460.50387092879,"semimajor_km":6837.8770800589,"source":"CELESTRAK","updated_at":"2026-09-20T09:00:39.935269Z"}}}